Location: Dennis Manor
(64.8292°N, 147.5397°W)
Time: 09:22:13
(UTC+00:00)

Envisat - Pass Details

Date: 31 October 2020
Orbit: 764 x 766 km, 98.1° (Epoch: 05 December)

Event Time Altitude Azimuth Distance (km) Brightness Sun altitude
Rises 14:26:28 0° 19° (NNE) 3,251 6.6 -20.1°
Reaches altitude 10° 14:29:28 10° 37° (NE) 2,319 6.1 -19.8°
Maximum altitude 14:33:05 19° 82° (E) 1,765 5.9 -19.4°
Drops below altitude 10° 14:36:41 10° 127° (SE) 2,308 6.1 -19.0°
Sets 14:39:38 0° 145° (SE) 3,229 6.6 -18.7°
